GW5289 Weather Reports


Display with metric or nautical units.
time (UTC)temp
F
wind
direction
speed
MPH
gust
MPH
rain 1hr
in
rain 24hr
in
rain mn
in
humidity
%
barometer
mb
20260502151521 56 6 2.0 9.0 0.00 0.00 0.00 59 1014.0
20260502123010 53 7 1.0 4.0 0.00 0.00 0.00 78 1013.4
20260502121517 53 332 2.0 5.0 0.00 0.00 0.00 78 1013.4
20260502114522 53 356 1.0 5.0 0.00 0.00 0.00 80 1013.5
20260502113024 53 53 0.0 2.0 0.00 0.00 0.00 81 1013.6
20260502111513 52 359 0.0 3.0 0.00 0.00 0.00 82 1013.6
20260502110018 52 22 0.0 2.0 0.00 0.00 0.00 86 1013.4
20260502104519 50 343 0.0 2.0 0.00 0.00 0.00 90 1013.1
20260502103025 50 68 0.0 1.0 0.00 0.00 0.00 92 1012.7
20260502101534 50 352 0.0 0.0 0.00 0.00 0.00 92 1012.7
20260502091525 50 352 0.0 2.0 0.00 0.00 0.00 91 1012.5
20260502071504 51 353 0.0 2.0 0.00 0.00 0.00 90 1012.3
20260502070008 51 255 0.0 2.0 0.00 0.00 0.00 89 1011.8
20260502064524 51 230 0.0 2.0 0.00 0.00 0.00 90 1011.7
20260502063002 51 230 0.0 2.0 0.00 0.00 0.00 90 1011.9
20260502061504 51 230 0.0 2.0 0.00 0.00 0.00 89 1012.1
20260502060006 51 226 0.0 2.0 0.00 0.00 0.00 88 1012.4
20260502054510 52 226 0.0 0.0 0.00 0.00 0.00 87 1012.6
20260502053013 52 226 0.0 2.0 0.00 0.00 0.00 85 1012.7
20260502051504 53 226 0.0 2.0 0.00 0.00 0.00 84 1013.0
20260502050014 54 234 0.0 2.0 0.00 0.00 0.00 83 1013.0
20260502044509 54 219 0.0 2.0 0.00 0.00 0.00 82 1013.2
20260502043011 54 214 0.0 3.0 0.00 0.00 0.00 82 1013.3
20260502041515 54 197 0.0 5.0 0.00 0.00 0.00 81 1013.3
20260502040004 54 222 1.0 4.0 0.00 0.00 0.00 81 1013.3
20260502034507 55 192 0.0 4.0 0.00 0.00 0.00 79 1013.5
20260502033007 55 259 0.0 4.0 0.00 0.00 0.00 78 1013.3
20260502031513 55 228 1.0 5.0 0.00 0.00 0.00 78 1012.9
20260502030015 56 235 1.0 8.0 0.00 0.00 0.00 76 1012.8
20260502024504 56 181 2.0 8.0 0.00 0.00 0.00 76 1012.8
20260502023006 55 212 1.0 5.0 0.00 0.00 0.00 76 1013.0
20260502021513 54 192 0.0 2.0 0.00 0.00 0.00 77 1013.0
20260502020019 52 197 0.0 2.0 0.00 0.00 0.00 80 1012.9
20260502014537 52 159 0.0 1.0 0.00 0.00 0.00 79 1012.9
20260502013004 52 159 0.0 2.0 0.00 0.00 0.00 78 1012.9
20260502011510 53 159 0.0 2.0 0.00 0.00 0.00 76 1012.7
20260502010015 54 159 0.0 2.0 0.00 0.00 0.00 73 1012.4
20260502004523 55 149 0.0 2.0 0.00 0.00 0.00 71 1011.9
20260502003004 56 115 0.0 3.0 0.00 0.00 0.00 70 1011.9
20260502001506 57 153 0.0 3.0 0.00 0.00 0.00 68 1011.9
20260502000011 57 105 1.0 3.0 0.00 0.00 0.00 67 1012.0
20260501234519 58 134 1.0 3.0 0.00 0.00 0.00 65 1012.1
20260501233022 59 120 2.0 5.0 0.00 0.00 0.00 63 1012.0
20260501231506 60 53 2.0 7.0 0.00 0.00 0.00 63 1012.0
20260501230012 61 90 2.0 7.0 0.00 0.00 0.00 61 1012.0
20260501224517 62 97 3.0 7.0 0.00 0.00 0.00 58 1011.9
20260501223020 63 112 3.0 9.0 0.00 0.00 0.00 54 1012.0
20260501221522 65 138 4.0 7.0 0.00 0.00 0.00 48 1011.9
20260501220010 67 212 2.0 7.0 0.00 0.00 0.00 41 1011.8
20260501214514 67 221 3.0 9.0 0.00 0.00 0.00 39 1011.8
20260501213019 68 151 1.0 5.0 0.00 0.00 0.00 41 1011.8
20260501211523 67 193 3.0 6.0 0.00 0.00 0.00 39 1011.8
20260501210032 67 133 2.0 6.0 0.00 0.00 0.00 38 1012.2
20260501204512 68 231 3.0 5.0 0.00 0.00 0.00 38 1012.3
20260501203017 68 183 1.0 7.0 0.00 0.00 0.00 36 1012.5
20260501201522 67 245 3.0 8.0 0.00 0.00 0.00 41 1012.7
20260501200025 67 119 2.0 6.0 0.00 0.00 0.00 41 1013.2
20260501194530 67 344 2.0 5.0 0.00 0.00 0.00 39 1013.2
20260501193018 65 348 3.0 7.0 0.00 0.00 0.00 38 1013.6
20260501191517 67 238 4.0 7.0 0.00 0.00 0.00 33 1013.8
20260501190025 67 262 2.0 9.0 0.00 0.00 0.00 35 1014.1
20260501184526 67 92 4.0 8.0 0.00 0.00 0.00 37 1014.2
20260501183024 67 146 3.0 10.0 0.00 0.00 0.00 39 1014.1
20260501181523 67 179 1.0 8.0 0.00 0.00 0.00 42 1014.4
20260501180024 67 337 1.0 6.0 0.00 0.00 0.00 38 1014.6
20260501174524 66 9 1.0 7.0 0.00 0.00 0.00 38 1014.5
20260501173016 65 13 2.0 5.0 0.00 0.00 0.00 38 1014.7
20260501171520 64 25 1.0 4.0 0.00 0.00 0.00 36 1014.7
20260501170010 65 195 2.0 6.0 0.00 0.00 0.00 37 1014.8
20260501164503 63 227 2.0 5.0 0.00 0.00 0.00 36 1015.0
20260501163018 64 148 1.0 4.0 0.00 0.00 0.00 37 1015.2
20260501161512 62 51 1.0 4.0 0.00 0.00 0.00 37 1015.4
20260501160019 63 114 1.0 4.0 0.00 0.00 0.00 40 1015.6